Flag for Germany Weather past 2 weeks in Weil am Rhein, Baden-Württemberg, Germany

Now
65 °F

Mild.


Feels Like: 65 °F
Forecast: 65 / 74 °F
Wind: 1 mph from West

Location: Bale-Mulhouse

Current Time: Jul 7, 2015 at 4:57:54 AM

Latest Report: Jul 7, 2015 at 4:00 AM


Visibility: 16 mi

Pressure: 29.99 "Hg

Humidity: 90%

Dew point: 62 °F

Location of Weil am RheinLocation

Historic Weather in Weil am Rhein — Graph

°F

Weil am Rhein temperature yesterday

Maximum temperature yesterday: 87 °F (at 6:00 PM)
Minimum temperature yesterday: 70 °F (at 6:00 AM)
Average temperature yesterday: 79 °F

Past Weeks' High & Low Weather Summary

 TemperatureHumidityPressure
High98 °F (Jul 5, 6:00 PM)98% (Jun 24, 5:00 AM)30.23 "Hg (Jun 24, 5:00 AM)
Low45 °F (Jun 24, 6:00 AM)28% (Jun 26, 3:00 PM)29.75 "Hg (Jun 22, 10:00 PM)
Average72 °F64%30.09 "Hg
* Reported Jun 22 3:00 AM — Jul 7 3:00 AM, Weil am Rhein, Weather by CustomWeather, © 2015

Note: Actual official high and low records may vary slightly from our data, if they occured in-between our weather recording intervals... More about our weather records

Advertising

Weil am Rhein weather history for previous 24 hours

 ConditionsComfort  
Time TempWeatherWind HumidityBarometerVisibility
3:00 AM
Tue, Jul 7
65 °FMild.1 mph89%30.01 "Hg18 mi
2:00 AM66 °FMild.1 mph89%30.02 "Hg16 mi
1:00 AM68 °FMild.2 mph86%30.03 "Hg14 mi
12:00 AM70 °FClear.2 mph83%30.04 "Hg25 mi
10:00 PM
Mon, Jul 6
74 °FPassing clouds.2 mph77%30.03 "Hg25 mi
9:00 PM80 °FPassing clouds.2 mph63%30.01 "Hg25 mi
8:00 PM85 °FSunny.3 mph53%30.02 "Hg25 mi
7:00 PM87 °FScattered clouds.6 mph45%30.02 "Hg25 mi
6:00 PM87 °FPassing clouds.3 mph43%30.03 "Hg25 mi
5:00 PM86 °FPassing clouds.5 mph42%30.04 "Hg25 mi
4:00 PM86 °FScattered clouds.5 mph43%30.06 "Hg25 mi
3:00 PM84 °FPartly sunny.3 mph44%30.09 "Hg25 mi
2:00 PM83 °FPartly sunny.3 mph45%30.11 "Hg25 mi
1:00 PM81 °FPassing clouds.6 mph47%30.13 "Hg25 mi
12:00 PM78 °FScattered clouds.6 mph53%30.15 "Hg25 mi
11:00 AM76 °FPassing clouds.7 mph55%30.17 "Hg25 mi
10:00 AM74 °FScattered clouds.8 mph58%30.19 "Hg25 mi
9:00 AM72 °FScattered clouds.10 mph63%30.18 "Hg25 mi
8:00 AM71 °FScattered clouds.10 mph64%30.18 "Hg19 mi
7:00 AM71 °FPartly sunny.9 mph69%30.17 "Hg19 mi
6:00 AM70 °FOvercast.9 mph74%30.17 "Hg19 mi
4:00 AM73 °FOvercast.14 mph67%30.12 "Hg28 mi
Weather by CustomWeather, © 2015

See weather overviewHow to use our weather pages